MTJ200 YSSY-YMML

Flight info

Callsign MTJ200
Flight time N/A
Altitude 34000
Route KEVIN DCT WOL H65 LEECE Q29 BOOIN
Aircraft CL60/M-SBDE1E2E3FGHIJ1J4J5J7M3RWXYZ/LB1V1D1

Departure

Time 2026-04-20 07:07
Airport Sydney Kingsford Smith International Airport (YSSY)

Arrival

Time N/A
Airport Melbourne Airport (YMML)
Time Latitude Longitude Altitude Speed Heading
2026-04-20 06:43 -33.94347 151.18008 21 ft 0 kts 164°
2026-04-20 06:58 -33.94348 151.18008 21 ft 0 kts 165°
2026-04-20 06:58 -33.94340 151.18005 21 ft 2 kts 164°
2026-04-20 06:58 -33.94326 151.18001 21 ft 2 kts 165°
2026-04-20 06:59 -33.94311 151.17996 20 ft 2 kts 165°
2026-04-20 06:59 -33.94297 151.17992 20 ft 2 kts 164°
2026-04-20 06:59 -33.94282 151.17987 19 ft 2 kts 165°
2026-04-20 06:59 -33.94268 151.17982 19 ft 2 kts 164°
2026-04-20 07:00 -33.94254 151.17978 18 ft 1 kts 186°
2026-04-20 07:00 -33.94244 151.17986 18 ft 1 kts 245°
2026-04-20 07:00 -33.94243 151.17990 18 ft 0 kts 254°
2026-04-20 07:02 -33.94247 151.17973 18 ft 4 kts 257°
2026-04-20 07:02 -33.94261 151.17921 18 ft 8 kts 243°
2026-04-20 07:02 -33.94309 151.17888 20 ft 8 kts 183°
2026-04-20 07:02 -33.94363 151.17899 22 ft 7 kts 172°
2026-04-20 07:03 -33.94412 151.17911 23 ft 7 kts 171°
2026-04-20 07:03 -33.94475 151.17896 24 ft 12 kts 211°
2026-04-20 07:03 -33.94562 151.17894 24 ft 12 kts 167°
2026-04-20 07:03 -33.94651 151.17914 25 ft 13 kts 172°
2026-04-20 07:04 -33.94746 151.17935 26 ft 14 kts 174°
2026-04-20 07:04 -33.94828 151.17947 26 ft 4 kts 159°
2026-04-20 07:04 -33.94845 151.17955 26 ft 0 kts 160°
2026-04-20 07:04 -33.94919 151.17982 25 ft 20 kts 167°
2026-04-20 07:05 -33.95057 151.18021 22 ft 16 kts 162°
2026-04-20 07:05 -33.95100 151.18126 20 ft 16 kts 78°
2026-04-20 07:05 -33.95076 151.18265 19 ft 17 kts 77°
2026-04-20 07:05 -33.95047 151.18420 17 ft 19 kts 77°
2026-04-20 07:06 -33.95017 151.18584 15 ft 20 kts 78°
2026-04-20 07:06 -33.94990 151.18735 14 ft 19 kts 79°
2026-04-20 07:06 -33.95029 151.18849 14 ft 14 kts 164°
2026-04-20 07:06 -33.95166 151.18884 12 ft 55 kts 169°
2026-04-20 07:07 -33.95876 151.19076 63 ft 142 kts 168°
2026-04-20 07:07 -33.96997 151.19400 471 ft 185 kts 169°
2026-04-20 07:07 -33.98241 151.19936 1288 ft 205 kts 146°
2026-04-20 07:07 -33.99164 151.21268 2293 ft 217 kts 128°
2026-04-20 07:08 -34.00015 151.22772 3433 ft 227 kts 127°
2026-04-20 07:08 -34.00931 151.24350 4409 ft 237 kts 131°
2026-04-20 07:08 -34.02086 151.25813 5285 ft 253 kts 142°
2026-04-20 07:08 -34.03487 151.27135 6541 ft 258 kts 150°
2026-04-20 07:09 -34.05105 151.27878 7869 ft 257 kts 173°
2026-04-20 07:09 -34.06858 151.27725 9111 ft 261 kts 197°
2026-04-20 07:09 -34.08416 151.26619 10271 ft 270 kts 216°
2026-04-20 07:09 -34.09943 151.25104 10786 ft 302 kts 217°
2026-04-20 07:10 -34.11629 151.23424 11389 ft 326 kts 217°
2026-04-20 07:10 -34.13401 151.21655 12333 ft 337 kts 217°
2026-04-20 07:10 -34.15210 151.19849 13327 ft 344 kts 217°
2026-04-20 07:10 -34.17057 151.18002 14321 ft 350 kts 217°
2026-04-20 07:11 -34.18936 151.16124 15314 ft 354 kts 217°
2026-04-20 07:11 -34.20828 151.14230 16287 ft 358 kts 217°
2026-04-20 07:11 -34.22746 151.12312 17176 ft 363 kts 217°
2026-04-20 07:11 -34.24697 151.10359 18051 ft 368 kts 217°
2026-04-20 07:12 -34.26674 151.08380 18911 ft 371 kts 217°
2026-04-20 07:12 -34.28659 151.06393 19725 ft 375 kts 217°
2026-04-20 07:12 -34.30667 151.04381 20486 ft 378 kts 217°
2026-04-20 07:12 -34.32690 151.02353 21234 ft 383 kts 217°
2026-04-20 07:13 -34.34733 151.00305 21989 ft 386 kts 217°
2026-04-20 07:13 -34.36803 150.98227 22681 ft 390 kts 217°
2026-04-20 07:13 -34.38908 150.96114 23395 ft 393 kts 217°
2026-04-20 07:13 -34.41014 150.93999 24047 ft 396 kts 217°
2026-04-20 07:14 -34.43116 150.91885 24714 ft 398 kts 216°
2026-04-20 07:14 -34.45269 150.89719 25367 ft 400 kts 216°
2026-04-20 07:14 -34.47409 150.87564 25971 ft 403 kts 216°
2026-04-20 07:14 -34.49560 150.85399 26534 ft 405 kts 216°
2026-04-20 07:15 -34.51722 150.83220 27056 ft 408 kts 216°
2026-04-20 07:15 -34.53962 150.80960 27598 ft 410 kts 216°
2026-04-20 07:15 -34.56094 150.78572 28082 ft 417 kts 225°
2026-04-20 07:15 -34.57856 150.75757 28499 ft 423 kts 229°
2026-04-20 07:16 -34.59606 150.72842 28893 ft 426 kts 229°
2026-04-20 07:16 -34.61378 150.69899 29350 ft 427 kts 229°
2026-04-20 07:16 -34.63148 150.66956 29739 ft 429 kts 229°
2026-04-20 07:16 -34.64917 150.64014 30121 ft 431 kts 228°
2026-04-20 07:17 -34.66696 150.61052 30437 ft 433 kts 228°
2026-04-20 07:17 -34.68492 150.58063 30715 ft 436 kts 228°
2026-04-20 07:17 -34.70264 150.55109 30999 ft 438 kts 228°
2026-04-20 07:17 -34.72058 150.52115 31338 ft 438 kts 228°
2026-04-20 07:18 -34.73855 150.49115 31747 ft 436 kts 228°
2026-04-20 07:18 -34.75638 150.46133 32144 ft 435 kts 228°
2026-04-20 07:18 -34.77409 150.43172 32531 ft 433 kts 228°
2026-04-20 07:18 -34.79168 150.40227 32906 ft 432 kts 227°
2026-04-20 07:19 -34.80916 150.37302 33269 ft 430 kts 227°
2026-04-20 07:19 -34.82677 150.34349 33619 ft 429 kts 228°
2026-04-20 07:19 -34.84429 150.31412 33914 ft 429 kts 228°
2026-04-20 07:19 -34.86182 150.28471 34199 ft 429 kts 228°
2026-04-20 07:20 -34.87933 150.25532 34304 ft 433 kts 228°
2026-04-20 07:20 -34.91504 150.19534 34309 ft 444 kts 228°
2026-04-20 07:21 -34.95144 150.13408 34310 ft 451 kts 228°
2026-04-20 07:21 -34.98835 150.07179 34298 ft 454 kts 229°
2026-04-20 07:22 -35.02529 150.00934 34288 ft 453 kts 229°
2026-04-20 07:22 -35.06217 149.94685 34289 ft 452 kts 228°
2026-04-20 07:23 -35.09869 149.88490 34287 ft 452 kts 228°
2026-04-20 07:23 -35.13558 149.82220 34285 ft 454 kts 228°
2026-04-20 07:24 -35.17220 149.75986 34283 ft 454 kts 228°
2026-04-20 07:24 -35.20903 149.69705 34285 ft 454 kts 228°
2026-04-20 07:25 -35.24578 149.63426 34289 ft 452 kts 228°
2026-04-20 07:25 -35.28234 149.57169 34292 ft 452 kts 228°
2026-04-20 07:26 -35.31874 149.50928 34298 ft 451 kts 228°
2026-04-20 07:26 -35.35527 149.44653 34301 ft 451 kts 228°